User: anonymous   Login
Location: Caltech
(34.1382°N, 118.1253°W)
Time: 13:07:21
(UTC-07:00)
Language:

ALOS - Orbit

View from above orbital plane
View from above orbital plane
View from above satellite
View from above satellite

Ground track
Ground track

The orbit data is extracted from the following two-line orbital elements,

1 28931U 06002A   17266.53032810  .00000190  00000-0  46112-4 0  9993
2 28931  97.8380 288.9403 0002175  62.5195 297.6222 14.62395179621834
Epoch (UTC): 23 September 2017 12:43:40
Eccentricity: 0.0002175
inclination: 97.8380°
perigee height: 684 km
apogee height: 687 km
right ascension of ascending node: 288.9403°
argument of perigee: 62.5195°
revolutions per day: 14.62395179
mean anomaly at epoch: 297.6222°
orbit number at epoch: 62183

The dashed part of the orbit path shows where the satellite is in the earth's shadow,  

DLR